Tracking 27122 objects as of 24-Mar-2023
HD Live streaming from Space Station
objects crossing your sky now

STARLINK-1544

Track STARLINK-1544 now!
10-day predictions
STARLINK-1544 is classified as:


NORAD ID: 46031
Int'l Code: 2020-055E
Perigee: 553.7 km
Apogee: 555.0 km
Inclination: 53.1 °
Period: 95.6 minutes
Semi major axis: 6925 km
RCS: Unknown
Launch date: August 7, 2020
Source: United States (US)
Launch site: AIR FORCE EASTERN TEST RANGE (AFETR)
Your satellite tracking list
Your tracking list is empty




NASA's NSSDC Master Catalog

Two Line Element Set (TLE):
1 46031U 20055E   23083.00432569  .00023880  00000-0  16167-2 0  9995
2 46031  53.0508 302.4844 0000987 115.5425 244.5666 15.06397623145341
Source of the keplerian elements: AFSPC